This is the latest recevied weather packets stored in our database for station/object W4DHW-4. If no packets are shown the sender has not sent any weather packets the latest 10 day(s).
| Time | Temp. | Humidity | Pressure | Rain* | Wind** | Luminosity | Snow |
|---|---|---|---|---|---|---|---|
| 1778005131 | 26.11° C | 33% | 1012.8 hPa | 0 mm | - | 665 W/m² | - |
| 1778004829 | 25.56° C | 33% | 1012.8 hPa | 0 mm | - | 699 W/m² | - |
| 1778004525 | 25.56° C | 34% | 1013.2 hPa | 0 mm | - | 741 W/m² | - |
| 1778004222 | 25.56° C | 33% | 1013.3 hPa | 0 mm | - | 707 W/m² | - |
| 1778003918 | 25.56° C | 33% | 1013.3 hPa | 0 mm | - | 205 W/m² | - |
| 1778003614 | 25.56° C | 32% | 1013.4 hPa | 0 mm | - | 709 W/m² | - |
| 1778003311 | 26.11° C | 31% | 1013.4 hPa | 0 mm | - | 758 W/m² | - |
| 1778003009 | 25.56° C | 32% | 1013.5 hPa | 0 mm | - | 760 W/m² | - |
| 1778002704 | 25.56° C | 32% | 1013.4 hPa | 0 mm | - | 741 W/m² | - |
| 1778002401 | 25.56° C | 36% | 1013.5 hPa | 0 mm | - | 734 W/m² | - |
| 1778002099 | 25° C | 35% | 1013.6 hPa | 0 mm | - | 734 W/m² | - |
| 1778001796 | 25° C | 34% | 1013.8 hPa | 0 mm | - | 709 W/m² | - |
| 1778001495 | 25° C | 36% | 1013.9 hPa | 0 mm | - | 733 W/m² | - |
| 1778001193 | 25° C | 37% | 1013.7 hPa | 0 mm | - | 674 W/m² | - |
| 1778000889 | 25° C | 37% | 1014 hPa | 0 mm | - | 783 W/m² | - |
| 1778000586 | 25° C | 38% | 1014 hPa | 0 mm | - | 771 W/m² | - |
| 1778000281 | 25° C | 38% | 1013.9 hPa | 0 mm | - | 799 W/m² | - |
| 1777999977 | 25° C | 39% | 1014 hPa | 0 mm | - | 816 W/m² | - |
| 1777999673 | 25° C | 38% | 1014.1 hPa | 0 mm | - | 778 W/m² | - |
| 1777999371 | 24.44° C | 39% | 1013.9 hPa | 0 mm | - | 730 W/m² | - |
| 1777999069 | 24.44° C | 41% | 1014.1 hPa | 0 mm | - | 770 W/m² | - |
| 1777998767 | 24.44° C | 40% | 1014.2 hPa | 0 mm | - | 789 W/m² | - |
| 1777998464 | 25° C | 41% | 1014.3 hPa | 0 mm | - | 766 W/m² | - |
| 1777998161 | 23.89° C | 42% | 1014.3 hPa | 0 mm | - | 727 W/m² | - |
| 1777997857 | 24.44° C | 42% | 1014.4 hPa | 0 mm | - | 719 W/m² | - |
* Rain latest hour (hover to see other rain measurements)
** Current wind speed in m/s (hover to see current wind gust speed)